User: anonymous   Login
Location: Bremen
(53.0793°N, 8.8017°E)
Time: 11:42:22
(UTC+02:00)
Language:

A-11 Canister half - Orbit

View from above orbital plane
View from above orbital plane
View from above satellite
View from above satellite

Ground track
Ground track

The orbit data is extracted from the following two-line orbital elements,

1 00051U 60009C   24107.76974820  .00000058  00000-0  13904-2 0  9990
2 00051  47.2145 338.1903 0108775   3.5689 356.5854 12.18326061834682
Epoch (UTC): 16 April 2024 18:28:26
Eccentricity: 0.0108775
inclination: 47.2145°
perigee height: 1513 km
apogee height: 1686 km
right ascension of ascending node: 338.1903°
argument of perigee: 3.5689°
revolutions per day: 12.18326061
mean anomaly at epoch: 356.5854°
orbit number at epoch: 83468

The dashed part of the orbit path shows where the satellite is in the earth's shadow,  

DLR